BEEAGLESAT

Last updated on April 27, 2019, 3:09 a.m. UTC

1 42736U 98067MR  19116.58349394  .05344197  12378-4  56382-3 0  9990
2 42736  51.6116 172.4218 0006034 335.7210 140.8917 16.36759636110007

Satellite is not in orbit.